Погода в Мужи

Погода в Мужи : погода сейчас, прогноз погоды и архив. Всё, что Вы хотите узнать о погоде в Мужи!

Хотите узнать прогноз погоды в Мужи? Тогда Вам сюда: Погода в Мужи

Поиск расширенной информации на нашем сайте:

Другие новости

Новости СМИ2

Главная страница сайта

Новости сайта

03.07.2017

Напоминаем, что на нашем специализированном сайте Метеоцентр.Азия вы можете получить высокодетализированные автоматические прогнозы погоды по пунктам России, СНГ и мира в авиационном формате (включающие направление и скорость ветра, видимость, явления погоды, количество и форму облачности, нижнюю и верхнюю границу облачности).


Погода в Мужи - сегодня

Время (UTC), дата Ветер
(°,м/с) 
Видим.   Явления Облачность Т
(°С)
Тd
(°С)
f(%) Тe
(°С)
Pmin
(гПа)
dP
(гПа)
Po
(мм)
O2
(г/м3)
Тmin Tmax R s Состояние
почвы
12 14.06.18 020 (С) н/о    3/1 1000 м средняя 
[Sc|Ac trans]
+13.2 +9.3 77 +14  998.1  -0.2  747  285           
15 14.06.18 020 (С) н/о    3/1 1000 м средняя, верхняя 
[Sc|Ac trans|Ci fib]
+14.5 +10 74 +16  998.5  0.4  747  284    +14.6       
18 14.06.18 240 (ЮЗ) н/о    4/4 600 м 
[Sc]
+10.5 +9.3 92 +12  998.8  0.3  747  288           
21 14.06.18 тихо ()   50000 м    3/3 600 м верхняя 
[Sc|Ci fib]
+6.3 +6.3 100 +6  999.9  748  294           
00 15.06.18 020 (С) н/о    8/0 средняя, верхняя 
[Ac trans|Ci fib]
+11.3 +10.6 95 +13  1000.4  0.6  749  288           
06 15.06.18 020 (С) 14000 м  слаб. дождь  10/4 300 м средняя 
[Frnb|As op]
+12.8 +11.7 93 +15  1001.7  0.4  750  286           
09 15.06.18 350 (С) 55000 м  {дождь}  8/3 600 м средняя 
[Cu hum|As trans]
+13.9 +12.5 91 +19  1003.6  751  286           
12 15.06.18 350 (С) 13000 м  слаб. ливневой дождь  9/9 600 м кучево-дожд. 
[Cb cap]
+13.8 +13.5 98 +20  1005  1.4  752  286           
18 15.06.18 330 (СЗ) н/о  {ливн. осадки}  8/0 средняя, верхняя 
[Ac trans|Ci fib]
+11.1 +8 81 +10  1007.7  754  291           
03 16.06.18 350 (С) 7-11{12}  13000 м  слаб. дождь  10/6 300 м средняя 
[Frnb|As op]
+9.8 +8.9 94 +8  1010.7  1.3  756  293  +9.8    0.7     
15 16.06.18 340 (С) 4{11}  50000 м  {дождь}  10/10 600 м кучево-дожд. 
[Cb cap]
+9.1 +9 99 +8  1011.3  1.1  757  294    +10.2  12     
18 16.06.18 340 (С) 55000 м  {ливн. осадки, дождь}  9/8 600 м средняя 
[Cu Sc|Ac As]
+8.5 +8.5 100 +7  1012.1  0.7  757  294           
21 16.06.18 350 (С) 4{11}  60000 м    9/9 600 м 
[Cu Sc]
+8.9 +8.3 96 +8  1012.4  0.4  758  294           
00 17.06.18 340 (С) 5{11}  55000 м    10/10 1000 м 
[Sc]
+8.3 +8.2 99 +7  1012.5  758  295           
03 17.06.18 360 (С) 5{11}  н/о    9/9 600 м 
[Cu Sc]
+10.3 +8.7 90 +9  1012.7  0.3  758  293  +8       
09 17.06.18 020 (С) 6{11}  н/о    1/0 средняя 
[Ac trans]
+16.9 +11 68 +19  1011.1  -0.9  757  285           
12 17.06.18 020 (С) 7-10{12}  н/о    ясно 
+17.4 +11.2 67 +20  1010.6  -0.5  756  284           
15 17.06.18 020 (С) 6{11}  н/о    3/0 верхняя 
[Ci fib]
+16.8 +10.8 68 +19  1011.1  0.5  757  285    +17.8  0.0     
21 17.06.18 350 (С) 6{12}  65000 м    6/5 600 м средняя 
[Sc diur, vesp|Ac trans]
+11.2 +8.2 82 +10  1009.5  -0.9  755  291           
03 18.06.18 360 (С) н/о  {ливн. осадки}  9/9 600 м 
[Cu Sc]
+12.6 +9 79 +12  1008.5  0.5  755  289  +10.1    0.4     
09 18.06.18 350 (С) 4{12}  55000 м    10/10 1000 м 
[Sc]
+12.5 +10.2 86 +13  1008.5  -0.1  755  289           
15 18.06.18 360 (С) 40000 м  в посл. час дождь  10/3 300 м средняя 
[Frnb|As op]
+11.3 +11 98 +13  1008.8  -0.5  755  290    +13.3     
18 18.06.18 340 (С) 45000 м  {дождь}  10/0 средняя 
[As op]
+11.2 +11.2 100 +14  1008.1  -0.7  754  290           
21 18.06.18 340 (С) 40000 м    10/0 средняя, верхняя 
[As trans|Ci fib]
+10.4 +9.9 97 +12  1007.5  -0.6  754  291           
00 19.06.18 340 (С) 50000 м    10/10 1000 м 
[Sc]
+9.8 +9.2 96 +9  1006.7  -0.8  753  291           
Время (UTC), дата Ветер
(°,м/с) 
Видим.   Явления Облачность Т
(°С)
Тd
(°С)
f(%) Тe
(°С)
Pmin
(гПа)
dP
(гПа)
Po
(мм)
O2
(г/м3)
Тmin Tmax R s Состояние
почвы

Для получения пояснительной информации подведите курсор к названию столбца.

ПОГОДА в Мужи - архив

Всё, что Вы хотите узнать о погоде в Мужи - удобно и подробно!

Выберите нужную дату (начиная с 1 января 2015* года) и нажмите кнопку "Найти".
Будут отображены архивные сводки погоды по пункту Мужи, начиная с указанной даты.


Отображать данные в формате CSV (для использования в таблицах Excel)


Внимание! Наш архив погоды предназначен исключительно для личного некоммерческого использования в познавательных целях. Если Вам необходимы официальные справки о состоянии погоды (для производственных, юридических, коммерческих и т.п. целей), обращайтесь в органы Росгидромета.

*Примечание: данная дата относится к архиву по метеостанциям СССР (Россия, СНГ, Балтия).
Архив по метеостанциям Зарубежной Европы и Азии (кроме Китая) хранится 10 дней, по другим регионам земного шара (Китай, Африка, Америка, Австралия, Океания) - 1 день.

Мужи - район местоположения метеостанции


Название, широта, долгота, высота метеостанции:
Мужи 65.4°ш. 64.7°д. 19 м над ур. моря [Российская Федерация]

Дополнительная информация

В oтличие oт бoльшинства пoгoдных сайтoв мы публикуем пoдрoбную метеoинфoрмацию в детальнoм прoфессиoнальнoм фoрмате.

Характеристики температуры и влажнoсти вoздуха измеряются на высoте 2 м в тени вдали oт зданий и деревьев.
Скoрoсть ветра измеряется на высoте 10 м (на урoвне рoста челoвека скoрoсть ветра ниже в 1.5-2 раза). Если метеoстанция нахoдится в гoрoде или в лесу, тo скoрoсть ветра занижена на 2-4 м/с пo сравнению с oткрытым местoм. Скoрoсть ветра над акватoриями крупных рек и oзёр, а также на вершинах хoлмoв на 2-5 м/с выше, чем в oбычных услoвиях.
Атмoсфернoе давление в разных тoчках местнoсти мoжет значительнo oтличаться oт давления на метеoстанции, в зависимoсти oт услoвий рельефа (при пoдъёме на 10 м давление пoнижается примернo на 1 мм рт.ст.).